Location: Alfortville
(48.8058°N, 2.4204°E)
Time: 15:55:55
(UTC+00:00)

Cosmos 1697 Rocket - Pass Details

Date: 24 October 2021
Orbit: 834 x 842 km, 71.0° (Epoch: 28 November)

Event Time Altitude Azimuth Distance (km) Brightness Sun altitude
Rises 17:08:46 0° 225° (SW) 3,387 6.9 -4.8°
Reaches altitude 10° 17:11:17 10° 231° (SW) 2,456 6.3 -5.2°
Maximum altitude 17:16:44 48° 305° (NW) 1,085 3.7 -6.1°
Drops below altitude 10° 17:22:13 10° 20° (NNE) 2,465 4.8 -7.0°
Sets 17:24:45 0° 26° (NNE) 3,402 5.5 -7.4°
